TimeCDT,TemperatureF,Dew PointF,Humidity,Sea Level PressureIn,VisibilityMPH,Wind Direction,Wind SpeedMPH,Gust SpeedMPH,PrecipitationIn,Events,Conditions,WindDirDegrees,DateUTC
12:00 AM,6.8,5.0,92,30.16,15.0,NNW,18.4,-,N/A,Snow,Low Drifting Snow,330,2013-10-02 05:00:00
1:00 AM,8,5,82,30.16,15,NNW,19.6,,,Snow,Snow,330,2013-10-02 06:00:00
1:00 AM,8.6,5.0,85,30.16,15.0,NNW,19.6,-,N/A,,Partly Cloudy,330,2013-10-02 06:00:00
1:38 AM,-9999,-9999,N/A,-9999,10.0,NNW,18.4,-,N/A,,Unknown,340,2013-10-02 06:38:00
2:00 AM,8.6,6.8,92,30.17,10.0,NNW,17.3,-,N/A,Snow,Light Snow,330,2013-10-02 07:00:00
3:00 AM,10.4,8.6,92,30.17,4.0,NW,18.4,-,N/A,Snow,Light Snow,320,2013-10-02 08:00:00
3:50 AM,-9999,-9999,N/A,-9999,10.0,NW,16.1,-,N/A,,Unknown,320,2013-10-02 08:50:00
4:00 AM,12.2,8.6,85,30.19,10.0,NW,13.8,-,N/A,Snow,Light Snow,320,2013-10-02 09:00:00
5:00 AM,12.2,8.6,85,30.19,10.0,NNW,18.4,-,N/A,Snow,Light Snow,330,2013-10-02 10:00:00
6:00 AM,12.2,8.6,85,30.19,15.0,NNW,24.2,-,N/A,Snow,Light Snow,340,2013-10-02 11:00:00
7:00 AM,13,10,81,30.19,10,NNW,18.4,,,Snow,Light Snow,340,2013-10-02 12:00:00
7:00 AM,12.2,10.4,92,30.19,10.0,NNW,18.4,-,N/A,Snow,Light Snow,340,2013-10-02 12:00:00
8:00 AM,12.2,10.4,92,30.19,10.0,NNW,21.9,-,N/A,Snow,Light Snow,340,2013-10-02 13:00:00
9:00 AM,14.0,10.4,86,30.19,15.0,NNW,19.6,-,N/A,Snow,Light Snow,330,2013-10-02 14:00:00
10:00 AM,14.0,12.2,93,30.19,15.0,NNW,19.6,-,N/A,Snow,Light Snow,330,2013-10-02 15:00:00
11:00 AM,15.8,12.2,86,30.19,12.0,NNW,26.5,-,N/A,Snow,Light Snow Grains,340,2013-10-02 16:00:00
12:00 PM,15.8,14.0,93,30.19,10.0,NNW,26.5,-,N/A,Snow,Light Snow,340,2013-10-02 17:00:00
1:00 PM,16,13,83,30.20,12,NNW,31.1,,,Snow,Light Snow,340,2013-10-02 18:00:00
1:00 PM,15.8,14.0,93,30.20,12.0,NNW,25.3,31.1,N/A,Snow,Light Snow,340,2013-10-02 18:00:00
2:00 PM,15.8,14.0,93,30.21,8.0,NNW,24.2,29.9,N/A,Snow,Light Snow,340,2013-10-02 19:00:00
2:47 PM,-9999,-9999,N/A,-9999,8.0,NNW,21.9,29.9,N/A,,Unknown,340,2013-10-02 19:47:00
3:00 PM,15.8,12.2,86,30.22,5.0,NNW,24.2,31.1,N/A,Snow,Light Snow,340,2013-10-02 20:00:00
4:00 PM,15.8,14.0,93,30.23,5.0,NNW,24.2,-,N/A,Snow,Light Snow,330,2013-10-02 21:00:00
4:35 PM,-9999,-9999,N/A,-9999,15.0,NNW,28.8,-,N/A,,Unknown,330,2013-10-02 21:35:00
5:00 PM,15.8,12.2,86,30.24,15.0,NNW,21.9,28.8,N/A,Snow,Light Snow,330,2013-10-02 22:00:00
6:00 PM,14.0,8.6,79,30.25,15.0,NNW,21.9,-,N/A,,Partly Cloudy,330,2013-10-02 23:00:00
7:00 PM,12,9,81,30.26,15,NNW,17.3,,,,Partly Cloudy,340,2013-10-03 00:00:00
7:00 PM,12.2,8.6,85,30.26,15.0,NNW,17.3,-,N/A,,Mostly Cloudy,340,2013-10-03 00:00:00
7:20 PM,-9999,-9999,N/A,-9999,4.0,NNW,25.3,-,N/A,,Mostly Cloudy,340,2013-10-03 00:20:00
7:47 PM,-9999,-9999,N/A,-9999,10.0,NNW,20.7,-,N/A,,Unknown,330,2013-10-03 00:47:00
8:00 PM,10.4,8.6,92,30.26,15.0,NNW,20.7,26.5,N/A,Snow,Low Drifting Snow,330,2013-10-03 01:00:00
9:00 PM,10.4,8.6,92,30.26,15.0,NNW,21.9,-,N/A,Snow,Low Drifting Snow,340,2013-10-03 02:00:00
10:00 PM,12.2,8.6,85,30.26,10.0,NNW,20.7,-,N/A,Snow,Low Drifting Snow,340,2013-10-03 03:00:00
11:00 PM,10.4,6.8,85,30.27,15.0,NNW,19.6,-,N/A,Snow,Low Drifting Snow,340,2013-10-03 04:00:00